{"data":{"norad_id":45693,"epoch":"2026-09-19T13:09:30.998016Z","epoch_age_seconds":104105,"freshness":"FRESH","line1":"1 45693U 20035AN  26262.54827544  .00027454  00000+0  12202-2 0  9994","line2":"2 45693  53.0420 249.5066 0004307  96.3648 263.7838 15.21336744348328","mean_motion":15.21336744,"eccentricity":0.0004307,"inclination_deg":53.042,"raan_deg":249.5066,"arg_perigee_deg":96.3648,"mean_anomaly_deg":263.7838,"bstar":0.0012202,"rev_number":34832,"period_min":94.653600241972,"perigee_km":498.844361474,"apogee_km":504.77074571246,"semimajor_km":6879.9445535932,"source":"CELESTRAK","updated_at":"2026-09-20T09:00:38.453086Z"}}